Station PACF1 - 8729108 - Panama City, FL Image indicating link to RSS feed of recent meteorological observations for station PACF1


Conditions at PACF1 as of
(1:48 am CDT)
0648 GMT on 04/23/2024:
     

Click on the graph icon in the table below to see a time series plot of the last five days of that observation.

5-day plot - Wind Direction Wind Direction (WDIR): NE ( 40 deg true )
5-day plot - Wind Speed Wind Speed (WSPD): 4.1 kts
5-day plot - Wind Gust Wind Gust (GST): 6.0 kts
5-day plot - Water Temperature Water Temperature (WTMP): 70.3 °F
5-day plot - Wind Speed at 10 Meters Wind Speed at 10 meters (WSPD10M): 3.9 kts
5-day plot - Wind Speed at 20 Meters Wind Speed at 20 meters (WSPD20M): 5.8 kts
5-day plot -  Wind Speed, Wind Gust and Atmospheric Pressure Combined plot of Wind Speed, Gust, and Air Pressure
NOS Water Level Observation Network Water Level
Previous observations
TIME
(CDT)
5-day plot - Wind Direction
WDIR
 
5-day plot - Wind Speed
WSPD
kts
5-day plot - Wind Gust
GST
kts
5-day plot - Wave Height
WVHT
ft
5-day plot - Dominant Wave Period
DPD
sec
5-day plot - Average Wave Period
APD
sec
5-day plot - Mean Wave Direction
MWD
 
5-day plot - Atmospheric Pressure
PRES
in
5-day plot - Pressure Tendency
PTDY
in
5-day plot - Air Temperature
ATMP
°F
5-day plot - Water Temperature
WTMP
°F
5-day plot - Dew Point
DEWP
°F
5-day plot - Salinity
SAL
psu
5-day plot - Visibility
VIS
nmi
5-day plot - Tide (above MLLW)
TIDE
ft
2024-04-23 01:42 am NE 5.1 6.0------- 70.3----
2024-04-23 01:36 am NE 5.1 6.0------- 70.5----
2024-04-23 01:30 amENE 5.1 6.0------- 70.5----
2024-04-23 01:24 am NE 4.1 5.1------- 70.5----
2024-04-23 01:18 am NE 4.1 5.1------- 70.7----
2024-04-23 01:12 am NE 4.1 6.0------- 70.7----
2024-04-23 01:06 am NE 5.1 6.0------- 70.7----
2024-04-23 01:00 am NE 5.1 6.0------- 70.9----
2024-04-23 12:54 amENE 5.1 6.0------- 70.7----
2024-04-23 12:48 am NE 5.1 7.0------- 70.7----
2024-04-23 12:42 amNNE 4.1 6.0------- 70.7----
2024-04-23 12:36 am NE 5.1 6.0------- 70.7----
2024-04-23 12:30 am NE 4.1 7.0------- 70.7----
2024-04-23 12:24 amENE 4.1 7.0------- 70.5----
2024-04-23 12:18 amENE 5.1 7.0------- 70.5----
2024-04-23 12:12 amENE 6.0 8.0------- 70.5----
2024-04-23 12:06 amENE 4.1 6.0------- 70.5----
2024-04-23 12:00 am NE 5.1 7.0------- 70.5----
2024-04-22 11:54 pmENE 5.1 7.0------- 70.5----
2024-04-22 11:48 pmENE 5.1 6.0------- 70.3----
2024-04-22 11:42 pmENE 5.1 6.0------- 70.3----
2024-04-22 11:36 pmENE 5.1 6.0------- 70.2----
2024-04-22 11:30 pmENE 5.1 6.0------- 70.2----
2024-04-22 11:24 pm NE 4.1 6.0------- 70.3----
2024-04-22 11:18 pm NE 2.9 4.1------- 71.2----
2024-04-22 11:12 pm NE 2.9 4.1------- 71.4----
2024-04-22 11:06 pmENE 2.9 4.1------- 71.6----
2024-04-22 11:00 pmENE 4.1 5.1------- 71.6----
2024-04-22 10:54 pmENE 4.1 5.1------- 72.0----
2024-04-22 10:48 pmENE 4.1 6.0------- 72.3----
2024-04-22 10:42 pmENE 4.1 6.0------- 71.8----
2024-04-22 10:36 pm NE 4.1 6.0------- 72.0----
2024-04-22 10:30 pm NE 4.1 6.0------- 72.5----
2024-04-22 10:24 pm NE 2.9 5.1------- 72.5----
2024-04-22 10:18 pmNNE 1.9 4.1------- 72.1----
2024-04-22 10:12 pmNNE 2.9 5.1------- 72.1----
2024-04-22 10:06 pmNNE 2.9 4.1------- 72.1----
2024-04-22 10:00 pmNNE 2.9 5.1------- 72.0----
2024-04-22 09:54 pmNNE 4.1 5.1------- 72.0----
2024-04-22 09:48 pm NE 2.9 4.1------- 72.0----
2024-04-22 09:42 pmNNE 2.9 5.1------- 72.1----
2024-04-22 09:36 pmNNE 2.9 6.0------- 72.1----
2024-04-22 09:30 pmNNE 4.1 5.1------- 71.8----
2024-04-22 09:24 pmNNE 4.1 6.0------- 71.6----
2024-04-22 09:18 pm NE 4.1 6.0------- 71.6----
2024-04-22 09:12 pmNNE 4.1 7.0------- 71.4----
2024-04-22 09:06 pmNNE 2.9 7.0------- 71.4----
2024-04-22 09:00 pmNNE 2.9 5.1------- 71.6----
2024-04-22 08:54 pmNNE 2.9 6.0------- 71.6----
2024-04-22 08:48 pm N 2.9 5.1------- 72.5----
2024-04-22 08:42 pmNNE 4.1 5.1------- 72.5----
2024-04-22 08:36 pmNNE 2.9 6.0------- 72.7----
2024-04-22 08:30 pm N 2.9 5.1------- 72.7----
2024-04-22 08:24 pm N 2.9 5.1------- 73.2----
2024-04-22 08:18 pm N 2.9 6.0------- 73.9----
2024-04-22 08:12 pm N 2.9 6.0------- 74.1----
2024-04-22 08:06 pmNNE 5.1 7.0------- 74.1----
2024-04-22 08:00 pmNNE 4.1 7.0------- 74.3----
2024-04-22 07:54 pmNNE 4.1 8.0------- 74.3----
2024-04-22 07:48 pmNNE 4.1 6.0------- 74.1----
2024-04-22 07:42 pmNNE 5.1 7.0------- 74.1----
2024-04-22 07:36 pmNNE 5.1 7.0------- 74.1----
2024-04-22 07:30 pmNNE 4.1 7.0------- 73.9----
2024-04-22 07:24 pmNNE 4.1 6.0------- 73.9----
2024-04-22 07:18 pm---------- 73.9----
2024-04-22 07:12 pm---------- 73.9----
2024-04-22 07:06 pm---------- 73.9----
2024-04-22 07:00 pmNNE 4.1 7.0------- 73.8----
2024-04-22 06:54 pmNNE 5.1 8.0------- 73.8----
2024-04-22 06:48 pmNNE 6.0 8.9------- 73.8----
2024-04-22 06:42 pm N 4.1 9.9------- 73.6----
2024-04-22 06:36 pm N 6.0 9.9------- 73.6----
2024-04-22 06:30 pmNNE 7.0 9.9------- 73.6----
2024-04-22 06:24 pmNNE 4.1 11.1------- 73.6----
2024-04-22 06:18 pmNNE 6.0 9.9------- 73.6----
2024-04-22 06:12 pm N 7.0 12.0------- 73.6----
2024-04-22 06:06 pmNNE 6.0 8.9------- 73.6----
2024-04-22 06:00 pm N 5.1 9.9------- 73.6----
2024-04-22 05:54 pmNNE 5.1 8.9------- 73.6----
2024-04-22 05:48 pmNNE 7.0 11.1------- 73.6----
2024-04-22 05:42 pm N 5.1 11.1------- 73.8----
2024-04-22 05:36 pm N 6.0 9.9------- 73.8----
2024-04-22 05:30 pm N 5.1 12.0------- 73.8----
2024-04-22 05:24 pm N 5.1 9.9------- 73.8----
2024-04-22 05:18 pmNNE 6.0 11.1------- 73.8----
2024-04-22 05:12 pm N 6.0 8.0------- 73.8----
2024-04-22 05:06 pm N 6.0 9.9------- 73.8----
2024-04-22 05:00 pm N 6.0 13.0------- 73.8----
2024-04-22 04:54 pm N 8.0 9.9------- 73.8----
2024-04-22 04:48 pmNNW 6.0 11.1------- 73.6----
2024-04-22 04:42 pm N 7.0 11.1------- 73.6----
2024-04-22 04:36 pm N 8.0 13.0------- 73.6----
2024-04-22 04:30 pmNNE 7.0 14.0------- 73.6----
2024-04-22 04:24 pm N 5.1 8.9------- 73.6----
2024-04-22 04:18 pmNNE 6.0 8.9------- 73.8----
2024-04-22 04:12 pm N 6.0 14.0------- 73.8----
2024-04-22 04:06 pm N 7.0 11.1------- 73.8----
2024-04-22 04:00 pm N 5.1 12.0------- 73.8----
2024-04-22 03:54 pmNNE 4.1 8.9------- 73.8----
2024-04-22 03:48 pm N 4.1 12.0------- 73.9----
2024-04-22 03:42 pmNNE 6.0 13.0------- 73.8----
2024-04-22 03:36 pm N 7.0 9.9------- 73.6----
2024-04-22 03:30 pmNNW 5.1 12.0------- 73.6----
2024-04-22 03:24 pm N 8.0 12.0------- 73.6----
2024-04-22 03:18 pm N 7.0 14.0------- 73.6----
2024-04-22 03:12 pm N 5.1 12.0------- 73.6----
2024-04-22 03:06 pmNNE 8.9 15.9------- 73.6----
2024-04-22 03:00 pmNNE 7.0 13.0------- 73.6----
2024-04-22 02:54 pm N 8.9 14.0------- 73.6----
2024-04-22 02:48 pm N 5.1 9.9------- 73.6----
2024-04-22 02:42 pm N 5.1 13.0------- 73.6----
2024-04-22 02:36 pm N 8.0 13.0------- 73.6----
2024-04-22 02:30 pm N 5.1 11.1------- 73.8----
2024-04-22 02:24 pm N 6.0 12.0------- 73.8----
2024-04-22 02:18 pm N 5.1 9.9------- 73.9----
2024-04-22 02:12 pmNNW 5.1 9.9------- 74.1----
2024-04-22 02:06 pm N 8.0 12.0------- 74.1----
2024-04-22 02:00 pm N 4.1 12.0------- 73.9----
2024-04-22 01:54 pm N 4.1 9.9------- 74.1----
2024-04-22 01:48 pmNNW 7.0 13.0------- 74.1----
2024-04-22 01:42 pmNNW 5.1 12.0------- 73.9----
2024-04-22 01:36 pmNNW 8.0 18.1------- 73.8----
2024-04-22 01:30 pmNNW 5.1 8.9------- 73.6----
2024-04-22 01:24 pmNNW 6.0 12.0------- 73.4----
2024-04-22 01:18 pmNNW 7.0 12.0------- 73.4----
2024-04-22 01:12 pmNNW 6.0 11.1------- 73.6----
2024-04-22 01:06 pm N 7.0 11.1------- 73.6----
2024-04-22 01:00 pmNNE 6.0 9.9------- 73.8----
2024-04-22 12:54 pmNNW 8.9 15.0------- 74.1----
2024-04-22 12:48 pm NW 7.0 12.0------- 74.1----
2024-04-22 12:42 pm N 5.1 12.0------- 73.4----
2024-04-22 12:36 pmNNW 5.1 8.9------- 73.2----
2024-04-22 12:30 pmNNE 6.0 12.0------- 73.2----
2024-04-22 12:24 pmNNE 7.0 9.9------- 73.2----
2024-04-22 12:18 pm N 5.1 9.9------- 73.2----
2024-04-22 12:12 pm N 7.0 12.0------- 73.4----
2024-04-22 12:06 pm N 4.1 8.9------- 73.4----
2024-04-22 12:00 pm N 7.0 13.0------- 73.4----
2024-04-22 11:54 am N 5.1 9.9------- 73.4----
2024-04-22 11:48 am N 8.9 12.0------- 73.6----
2024-04-22 11:42 am N 8.0 13.0------- 73.6----
2024-04-22 11:36 amNNE 7.0 11.1------- 73.4----
2024-04-22 11:30 amNNW 8.0 13.0------- 73.4----
2024-04-22 11:24 am N 7.0 13.0------- 73.4----
2024-04-22 11:18 amNNW 6.0 12.0------- 73.4----
2024-04-22 11:12 am N 7.0 11.1------- 73.2----
2024-04-22 11:06 amNNW 7.0 15.0------- 73.2----
2024-04-22 11:00 amNNW 7.0 13.0------- 73.2----
2024-04-22 10:54 amNNE 6.0 12.0------- 73.2----
2024-04-22 10:48 amNNW 7.0 13.0------- 73.4----
2024-04-22 10:42 am N 6.0 9.9------- 73.4----
2024-04-22 10:36 am N 7.0 11.1------- 73.4----
2024-04-22 10:30 am N 6.0 9.9------- 73.4----
2024-04-22 10:24 am N 5.1 12.0------- 73.4----
2024-04-22 10:18 am N 8.0 12.0------- 73.4----
2024-04-22 10:12 am N 7.0 14.0------- 73.4----
2024-04-22 10:06 am N 8.9 12.0------- 73.4----
2024-04-22 10:00 am N 7.0 12.0------- 73.4----
2024-04-22 09:54 am N 8.0 12.0------- 73.4----
2024-04-22 09:48 am N 7.0 9.9------- 73.6----
2024-04-22 09:42 am N 6.0 8.0------- 73.6----
2024-04-22 09:36 am N 6.0 11.1------- 73.6----
2024-04-22 09:30 am N 6.0 9.9------- 73.6----
2024-04-22 09:24 am N 6.0 11.1------- 73.6----
2024-04-22 09:18 am N 6.0 11.1------- 73.4----
2024-04-22 09:12 am N 7.0 12.0------- 73.4----
2024-04-22 09:06 am N 8.9 12.0------- 73.4----
2024-04-22 09:00 am N 7.0 12.0------- 73.4----
2024-04-22 08:54 am N 7.0 13.0------- 73.0----
2024-04-22 08:48 am N 7.0 12.0------- 72.9----
2024-04-22 08:42 am N 8.0 11.1------- 73.0----
2024-04-22 08:36 am N 8.9 12.0------- 72.9----
2024-04-22 08:30 am N 7.0 12.0------- 73.0----
2024-04-22 08:24 am N 8.0 12.0------- 72.9----
2024-04-22 08:18 am N 8.0 13.0------- 73.0----
2024-04-22 08:12 am N 8.0 12.0------- 73.2----
2024-04-22 08:06 am N 6.0 13.0------- 73.6----
2024-04-22 08:00 am N 8.0 14.0------- 73.4----
2024-04-22 07:54 am N 7.0 11.1------- 73.4----
2024-04-22 07:48 am N 7.0 11.1------- 73.6----
2024-04-22 07:42 am N 8.0 13.0------- 73.6----
2024-04-22 07:36 am N 8.0 15.0------- 73.6----
2024-04-22 07:30 am N 7.0 13.0------- 73.6----
2024-04-22 07:24 am N 11.1 13.0------- 73.8----
2024-04-22 07:18 am N 7.0 11.1------- 73.9----
2024-04-22 07:12 am N 7.0 12.0------- 73.9----
2024-04-22 07:06 am N 8.9 15.0------- 73.8----
2024-04-22 07:00 am N 8.0 13.0------- 73.6----
2024-04-22 06:54 am N 8.0 12.0------- 73.6----
2024-04-22 06:48 am N 6.0 8.9------- 73.6----
2024-04-22 06:42 am N 6.0 9.9------- 73.8----
2024-04-22 06:36 am N 6.0 9.9------- 73.8----
2024-04-22 06:30 am N 7.0 12.0------- 73.9----
2024-04-22 06:24 am N 6.0 12.0------- 73.9----
2024-04-22 06:18 am N 5.1 8.9------- 73.9----
2024-04-22 06:12 am N 5.1 12.0------- 73.9----
2024-04-22 06:06 am N 5.1 9.9------- 73.9----
2024-04-22 06:00 am N 6.0 8.9------- 73.9----
2024-04-22 05:54 am N 5.1 9.9------- 73.9----
2024-04-22 05:48 am N 6.0 8.0------- 73.8----
2024-04-22 05:42 am N 8.0 11.1------- 73.8----
2024-04-22 05:36 am N 7.0 9.9------- 73.8----
2024-04-22 05:30 am N 7.0 11.1------- 73.6----
2024-04-22 05:24 am N 6.0 11.1------- 74.1----
2024-04-22 05:18 am N 6.0 9.9------- 74.1----
2024-04-22 05:12 am N 8.0 12.0------- 74.1----
2024-04-22 05:06 am N 6.0 12.0------- 74.1----
2024-04-22 05:00 am N 8.0 12.0------- 74.3----
2024-04-22 04:54 am N 7.0 9.9------- 74.3----
2024-04-22 04:48 am N 7.0 11.1------- 74.3----
2024-04-22 04:42 am N 7.0 12.0------- 74.3----
2024-04-22 04:36 am N 5.1 11.1------- 74.1----
2024-04-22 04:30 am N 6.0 8.9------- 73.6----
2024-04-22 04:24 am N 6.0 8.9------- 73.2----
2024-04-22 04:18 am N 6.0 9.9------- 73.0----
2024-04-22 04:12 am N 6.0 8.0------- 73.2----
2024-04-22 04:06 am N 5.1 8.0------- 73.2----
2024-04-22 04:00 am N 5.1 8.0------- 73.2----
2024-04-22 03:54 am N 6.0 8.9------- 73.2----
2024-04-22 03:48 am N 5.1 8.0------- 73.6----
2024-04-22 03:42 am N 5.1 9.9------- 73.9----
2024-04-22 03:36 amNNW 5.1 8.9------- 74.1----
2024-04-22 03:30 am N 5.1 9.9------- 74.1----
2024-04-22 03:24 amNNW 5.1 8.0------- 74.1----
2024-04-22 03:18 am N 5.1 9.9------- 73.9----
2024-04-22 03:12 am N 5.1 8.9------- 73.9----
2024-04-22 03:06 am N 5.1 8.9------- 73.9----
2024-04-22 03:00 am N 6.0 8.0------- 73.8----
2024-04-22 02:54 am N 5.1 8.0------- 73.8----
2024-04-22 02:48 am N 5.1 9.9------- 73.8----
2024-04-22 02:42 am N 5.1 8.9------- 73.6----
2024-04-22 02:36 am N 5.1 8.9------- 74.1----
2024-04-22 02:30 am N 5.1 7.0------- 74.7----
2024-04-22 02:24 am N 4.1 7.0------- 74.7----
2024-04-22 02:18 am N 4.1 8.9------- 74.7----
2024-04-22 02:12 am N 5.1 8.9------- 74.7----
2024-04-22 02:06 am N 6.0 9.9------- 74.5----
2024-04-22 02:00 am N 7.0 9.9------- 74.3----
2024-04-22 01:54 am N 5.1 8.9------- 73.8----